Change the Weather History Date:

Thursday, January 19, 2012

  Actual Average Record
Temperature  
Mean Temperature 16 °F -  
Max Temperature 30 °F 25 °F 48 °F (2013)
Min Temperature 1 °F 10 °F 10 °F (2014)
Degree Days  
Heating Degree Days 50    
Moisture  
Dew Point 15 °F    
Average Humidity 82    
Maximum Humidity 93    
Minimum Humidity 63    
Precipitation  
Precipitation 0.00 in - - ()
Sea Level Pressure  
Sea Level Pressure 29.98 in    
Wind  
Wind Speed 11 mph ()    
Max Wind Speed 20 mph    
Max Gust Speed 26 mph    
Visibility 7.6 miles    
Events Snow    
Averages and records for this station are not official NWS values.
T = Trace of Precipitation, MM = Missing Value Source: Averaged Metar Reports

Daily Weather History Graph

Daily Weather History Graph

Search for Another Location

Airport or City:

Trip Planner

Search our weather history database for the weather conditions in past years. The results will help you decide how hot, cold, wet, or windy it might be!

Date:

Astronomy

Jan. 19, 2012 Rise Set
Actual Time 8:05 AM EST 5:46 PM EST
Civil Twilight 7:35 AM EST 6:16 PM EST
Nautical Twilight 7:02 AM EST 6:50 PM EST
Astronomical Twilight 6:29 AM EST 7:22 PM EST
Moon 4:41 AM EST (1/19) 2:18 PM EST (1/19)
Length of Visible Light 10h 40m
Length of Day
9h 41m
Waning Crescent, 16% of the Moon is Illuminated
Jan 19
Waning Crescent
Jan 23
New
Jan 30
First Quarter
Feb 7
Full
Feb 14
Last Quarter

Hourly Weather History & Observations

Time (EST) Temp. Windchill Dew Point Humidity Pressure Visibility Wind Dir Wind Speed Gust Speed Precip Events Conditions
12:15 AM 24.8 °F 14.6 °F 19.4 °F 80% 29.99 in 10.0 mi South 10.4 mph - N/A   Clear
12:35 AM 24.8 °F 14.0 °F 19.4 °F 80% 29.98 in 10.0 mi SSW 11.5 mph - N/A   Clear
12:55 AM 24.8 °F 14.0 °F 21.2 °F 86% 29.97 in 10.0 mi South 11.5 mph - N/A   Clear
1:15 AM 26.6 °F 16.2 °F 21.2 °F 80% 29.96 in 10.0 mi South 11.5 mph - N/A   Clear
1:35 AM 26.6 °F 15.2 °F 21.2 °F 80% 29.94 in 10.0 mi South 13.8 mph - N/A   Clear
1:55 AM 26.6 °F 14.7 °F 21.2 °F 80% 29.93 in 10.0 mi SSW 15.0 mph - N/A   Clear
2:15 AM 26.6 °F 15.2 °F 21.2 °F 80% 29.92 in 10.0 mi SSW 13.8 mph 20.7 mph N/A   Clear
2:35 AM 26.6 °F 14.3 °F 21.2 °F 80% 29.91 in 10.0 mi SSW 16.1 mph 20.7 mph N/A   Clear
2:55 AM 26.6 °F 14.3 °F 21.2 °F 80% 29.89 in 10.0 mi SSW 16.1 mph 20.7 mph N/A   Clear
3:15 AM 28.4 °F 15.4 °F 23.0 °F 80% 29.87 in 10.0 mi SSW 19.6 mph - N/A   Clear
3:35 AM 28.4 °F 16.6 °F 23.0 °F 80% 29.86 in 10.0 mi SSW 16.1 mph 24.2 mph N/A   Clear
3:55 AM 28.4 °F 17.0 °F 23.0 °F 80% 29.86 in 10.0 mi SSW 15.0 mph 21.9 mph N/A   Scattered Clouds
4:15 AM 28.4 °F 16.2 °F 23.0 °F 80% 29.86 in 10.0 mi SSW 17.3 mph 21.9 mph N/A   Mostly Cloudy
4:35 AM 28.4 °F 17.5 °F 23.0 °F 80% 29.87 in 10.0 mi SW 13.8 mph 23.0 mph N/A   Overcast
4:55 AM 28.4 °F 16.6 °F 23.0 °F 80% 29.86 in 10.0 mi SW 16.1 mph 23.0 mph N/A   Mostly Cloudy
5:15 AM 28.4 °F 16.6 °F 23.0 °F 80% 29.85 in 10.0 mi SW 16.1 mph - N/A   Overcast
5:35 AM 28.4 °F 16.6 °F 23.0 °F 80% 29.85 in 10.0 mi SW 16.1 mph 20.7 mph N/A   Overcast
5:55 AM 28.4 °F 17.0 °F 23.0 °F 80% 29.85 in 10.0 mi SW 15.0 mph - N/A   Overcast
6:15 AM 28.4 °F 18.0 °F 23.0 °F 80% 29.84 in 10.0 mi SW 12.7 mph 17.3 mph N/A   Overcast
6:35 AM 28.4 °F 18.5 °F 23.0 °F 80% 29.83 in 10.0 mi SW 11.5 mph 17.3 mph N/A   Overcast
6:55 AM 28.4 °F 18.5 °F 24.8 °F 86% 29.84 in 10.0 mi SW 11.5 mph - N/A   Overcast
7:35 AM 28.4 °F 17.0 °F 24.8 °F 86% 29.86 in 10.0 mi SW 15.0 mph - N/A   Overcast
7:55 AM 28.4 °F 18.5 °F 24.8 °F 86% 29.86 in 10.0 mi SW 11.5 mph - N/A   Overcast
8:15 AM 30.2 °F 18.5 °F 24.8 °F 80% 29.86 in 10.0 mi WSW 17.3 mph - N/A   Overcast
8:35 AM 30.2 °F 18.5 °F 24.8 °F 80% 29.88 in 7.0 mi WSW 17.3 mph 20.7 mph N/A Snow Light Snow
8:55 AM 28.4 °F 17.0 °F 26.6 °F 93% 29.90 in 1.0 mi West 15.0 mph 21.9 mph N/A Snow Light Snow
9:15 AM 28.4 °F 17.0 °F 26.6 °F 93% 29.91 in 1.0 mi West 15.0 mph - N/A Snow Light Snow
9:35 AM 28.4 °F 18.0 °F 26.6 °F 93% 29.92 in 1.5 mi West 12.7 mph - N/A Snow Light Snow
9:55 AM 28.4 °F 17.5 °F 26.6 °F 93% 29.93 in 1.5 mi West 13.8 mph 21.9 mph N/A Snow Light Snow
10:15 AM 28.4 °F 18.5 °F 26.6 °F 93% 29.94 in 1.2 mi West 11.5 mph - N/A Snow Light Snow
10:35 AM 28.4 °F 17.5 °F 26.6 °F 93% 29.94 in 0.5 mi West 13.8 mph 18.4 mph N/A Snow Snow
10:55 AM 28.4 °F 18.0 °F 26.6 °F 93% 29.94 in 0.8 mi West 12.7 mph 20.7 mph N/A Snow Light Snow
11:15 AM 28.4 °F 18.5 °F 26.6 °F 93% 29.94 in 0.8 mi West 11.5 mph 16.1 mph N/A Snow Light Snow
11:35 AM 26.6 °F 16.2 °F 23.0 °F 86% 29.95 in 0.8 mi WNW 11.5 mph 20.7 mph N/A Snow Light Snow
11:55 AM 26.6 °F 15.7 °F 23.0 °F 86% 29.95 in 0.8 mi WNW 12.7 mph 20.7 mph N/A Snow Light Snow
12:35 PM 23.0 °F 11.7 °F 19.4 °F 86% 29.96 in 0.5 mi WNW 11.5 mph 20.7 mph N/A Snow Light Snow
1:15 PM 21.2 °F 11.7 °F 17.6 °F 86% 29.96 in 0.5 mi WNW 8.1 mph - N/A Snow Light Snow
1:35 PM 21.2 °F 10.9 °F 17.6 °F 86% 29.97 in 0.5 mi WNW 9.2 mph - N/A Snow Light Snow
1:55 PM 21.2 °F 14.9 °F 17.6 °F 86% 29.96 in 1.0 mi WNW 4.6 mph - N/A Snow Light Snow
2:15 PM 19.4 °F 7.9 °F 15.8 °F 86% 29.97 in 1.0 mi WNW 10.4 mph - N/A Snow Light Snow
2:35 PM 19.4 °F 10.4 °F 15.8 °F 86% 29.97 in 1.0 mi WNW 6.9 mph - N/A Snow Light Snow
2:55 PM 19.4 °F 9.5 °F 15.8 °F 86% 29.99 in 0.5 mi WNW 8.1 mph - N/A Snow Light Snow
3:35 PM 19.4 °F 9.5 °F 12.2 °F 74% 30.00 in 10.0 mi WNW 8.1 mph - N/A   Overcast
3:55 PM 19.4 °F 11.5 °F 12.2 °F 74% 30.01 in 10.0 mi NW 5.8 mph - N/A   Overcast
4:15 PM 17.6 °F 7.3 °F 8.6 °F 68% 30.03 in 10.0 mi NW 8.1 mph - N/A   Mostly Cloudy
4:35 PM 17.6 °F 6.4 °F 8.6 °F 68% 30.03 in 10.0 mi NW 9.2 mph - N/A   Overcast
4:55 PM 17.6 °F 9.3 °F 6.8 °F 63% 30.04 in 10.0 mi NW 5.8 mph 17.3 mph N/A   Overcast
5:15 PM 17.6 °F 2.2 °F 8.6 °F 68% 30.05 in 10.0 mi NNW 17.3 mph 26.5 mph N/A   Overcast
5:55 PM 12.2 °F 0.7 °F 5.0 °F 73% 30.08 in 10.0 mi NNW 8.1 mph - N/A   Mostly Cloudy
6:15 PM 12.2 °F 2.9 °F 3.2 °F 67% 30.08 in 10.0 mi NNW 5.8 mph - N/A   Scattered Clouds
6:35 PM 10.4 °F 0.8 °F 3.2 °F 73% 30.10 in 10.0 mi NNW 5.8 mph - N/A   Clear
6:55 PM 10.4 °F -0.4 °F 3.2 °F 73% 30.11 in 10.0 mi NNW 6.9 mph - N/A   Clear
7:15 PM 10.4 °F -0.4 °F 3.2 °F 73% 30.11 in 10.0 mi NNW 6.9 mph - N/A   Clear
7:35 PM 10.4 °F 0.8 °F 3.2 °F 73% 30.12 in 10.0 mi NNW 5.8 mph - N/A   Clear
7:55 PM 8.6 °F 0.1 °F 1.4 °F 73% 30.12 in 10.0 mi NNW 4.6 mph - N/A   Clear
8:15 PM 6.8 °F -0.1 °F 1.4 °F 79% 30.12 in 10.0 mi NNW 3.5 mph - N/A   Clear
8:35 PM 6.8 °F -0.1 °F 1.4 °F 79% 30.13 in 10.0 mi NNW 3.5 mph - N/A   Clear
8:55 PM 6.8 °F -2.0 °F 1.4 °F 79% 30.13 in 10.0 mi NNW 4.6 mph - N/A   Clear
9:15 PM 8.6 °F 2.0 °F 3.2 °F 79% 30.14 in 10.0 mi NNW 3.5 mph - N/A   Clear
9:35 PM 5.0 °F - 1.4 °F 85% 30.14 in 10.0 mi Calm Calm - N/A   Clear
9:55 PM 5.0 °F - 1.4 °F 85% 30.15 in 10.0 mi Calm Calm - N/A   Clear
10:15 PM 1.4 °F - -2.2 °F 85% 30.15 in 10.0 mi Calm Calm - N/A   Clear
10:35 PM 1.4 °F - -0.4 °F 92% 30.16 in 10.0 mi Calm Calm - N/A   Clear
10:55 PM 1.4 °F - -0.4 °F 92% 30.16 in 10.0 mi Calm Calm - N/A   Clear
11:15 PM 3.2 °F - 1.4 °F 92% 30.16 in 10.0 mi Calm Calm - N/A   Clear
11:35 PM 5.0 °F - 3.2 °F 92% 30.16 in 10.0 mi Calm Calm - N/A   Clear
11:55 PM 6.8 °F - 3.2 °F 85% 30.16 in 10.0 mi Calm Calm - N/A   Clear